Date,TemperatureHighF,TemperatureAvgF,TemperatureLowF,DewpointHighF,DewpointAvgF,DewpointLowF,HumidityHigh,HumidityAvg,HumidityLow,PressureMaxIn,PressureMinIn,WindSpeedMaxMPH,WindSpeedAvgMPH,GustSpeedMaxMPH,PrecipitationSumIn
2013-2-1,70.6,58.1,50.1,51.7,43.4,39.2,90,59,36,30.14,30.04,9,1,9,0.00
2013-2-2,64.3,53.0,45.4,53.7,46.1,39.7,99,78,63,30.21,30.14,11,1,11,0.00
2013-2-3,58.0,48.0,42.5,50.2,45.1,42.5,100,91,69,30.20,30.07,15,2,15,0.01
2013-2-4,65.0,52.6,43.5,52.7,45.5,40.0,100,78,54,30.11,29.99,6,1,6,0.00
2013-2-5,55.7,46.5,40.5,47.9,44.1,40.5,100,92,72,30.09,30.01,18,3,18,0.02
2013-2-6,58.9,46.8,40.9,49.2,42.1,38.0,98,84,61,30.14,30.07,19,2,19,0.00
2013-2-7,52.2,43.8,38.6,48.0,39.9,36.3,99,87,65,30.14,29.96,18,2,18,0.10
2013-2-8,49.9,41.5,38.0,43.9,38.8,32.8,100,91,65,29.97,29.89,21,3,21,0.02
2013-2-9,56.0,45.3,39.5,42.3,33.8,26.2,80,64,43,30.05,29.93,16,2,16,0.00
2013-2-10,58.9,48.1,39.8,40.7,34.4,27.2,95,60,39,30.06,29.96,16,2,16,0.00
2013-2-11,59.9,49.9,43.2,36.2,30.9,22.7,67,49,27,30.18,30.00,20,4,20,0.00
2013-2-12,60.2,48.5,39.2,44.2,39.4,30.8,100,73,46,30.29,30.18,7,1,7,0.00
2013-2-13,63.9,53.6,47.3,48.0,38.1,33.5,70,56,37,30.27,30.15,12,2,12,0.00
2013-2-14,67.8,56.9,46.5,45.2,40.5,36.9,79,55,39,30.16,30.08,22,4,22,0.00
2013-2-15,76.5,63.9,55.6,46.4,39.2,34.1,53,41,26,30.18,30.12,12,2,12,0.00
2013-2-16,73.7,63.8,54.5,47.4,37.7,28.7,67,40,26,30.14,29.97,16,2,16,0.00
2013-2-17,58.7,50.6,42.3,49.2,43.3,35.5,95,77,52,29.99,29.92,15,2,15,0.00
2013-2-18,48.9,43.9,39.9,46.9,41.7,38.2,100,92,75,30.01,29.94,13,1,13,0.01
2013-2-19,45.4,40.0,35.3,45.4,39.6,34.7,100,98,89,29.94,29.71,20,3,20,0.37
2013-2-20,56.9,43.3,34.1,44.2,37.8,32.8,99,83,52,30.01,29.78,21,4,21,0.01
2013-2-21,56.5,46.1,38.8,40.5,36.9,30.3,96,73,42,30.13,30.00,21,4,21,0.00
2013-2-22,63.9,49.8,41.9,42.6,36.7,27.1,92,63,38,30.19,30.12,18,2,19,0.00
2013-2-23,57.2,47.2,41.5,45.2,39.9,28.2,100,78,43,30.20,30.09,24,3,24,0.01
2013-2-24,59.2,49.6,42.2,31.4,26.3,21.7,55,41,27,30.20,30.11,27,4,27,0.00
2013-2-25,66.3,50.6,40.5,46.0,37.8,27.0,90,63,44,30.21,30.11,18,2,18,0.00
2013-2-26,63.9,54.0,44.5,40.1,29.3,22.3,77,41,23,30.14,30.07,23,4,23,0.00
2013-2-27,69.6,57.3,49.1,43.7,34.3,24.7,70,43,22,30.29,30.13,14,2,14,0.00
2013-2-28,69.3,57.5,50.4,53.7,47.7,41.9,83,70,54,30.38,30.29,11,2,13,0.00